Location: Recife
(8.0585°S, 34.8848°W)
Time: 09:20:55
(UTC-03:00)

Altair - Pass Details

Date: 23 April 2026
Orbit: 1501 x 1682 km, 47.2° (Epoch: 11 May)

Event Time Altitude Azimuth Distance (km) Brightness Sun altitude
Rises 19:29:58 0° 320° (NW) 4,695 10.7 -33.9°
Reaches altitude 10° 19:33:02 10° 320° (NW) 3,694 10.0 -34.6°
Enters shadow 19:42:01 85° 316° (NW) 1,515 7.3 -36.8°
